(°C)
13°
15°
16°
17°
18°
19°
19°
(°C)
10°
10°
11°
11°
12°
И
И
И
ИСИ
И
И
И
(km/h)
20-26
21-30
20-32
22-34
24-35
26-36
26-36
(mm)
0
0
0
0
0
0
0
(%)
0
7
7
7
7
7
7

Издигане на слънцето

/ 15.9°
sun-icon
UV 1
07:19
19:33
Намаляваща полу-луна (209°)
20:36
09:40

METAR за 51.15°С 51.54°И (UARR)

Час Условия Температура/
Точка на оросяване
Вятър Видимост Времето Облаци Налягане Промяна Сурови
VFR 12°C / 3°C 100º 12kt >10km - Broken Clouds 5000ft 1018 No Significant change UARR 230330Z 10006MPS 9999 BKN050CB 12/03 Q1018 R04/CLRD70 NOSIG RMK QFE760/1014
VFR 11°C / 3°C 90º 10kt >10km - Broken Clouds 5000ft 1018 No Significant change. Runway 04: Wet or puddles, 1-10% contamination with 1mm, friction coefficient 0.65. UARR 230300Z 09005MPS 9999 BKN050CB 11/03 Q1018 R04/210165 NOSIG RMK QFE760/1014
VFR 11°C / 3°C 90º 12kt >10km - Broken Clouds 5000ft 1018 No Significant change. Runway 04: Wet or puddles, 1-10% contamination with 1mm, friction coefficient 0.65. UARR 230230Z 09006MPS 9999 BKN050CB 11/03 Q1018 R04/210165 NOSIG RMK QFE760/1014
VFR 11°C / 3°C 90º 12kt >10km - Broken Clouds 5000ft 1018 No Significant change. Runway 04: Wet or puddles, 1-10% contamination with 1mm, friction coefficient 0.65. UARR 230200Z 09006MPS 9999 BKN050CB 11/03 Q1018 R04/210165 NOSIG RMK QFE760/1014
VFR 11°C / 3°C 90º 10kt >10km - Broken Clouds 5000ft 1018 No Significant change. Runway 04: Wet or puddles, 1-10% contamination with 1mm, friction coefficient 0.65. UARR 230130Z 09005MPS 9999 BKN050CB 11/03 Q1018 R04/210165 NOSIG RMK QFE760/1014
VFR 11°C / 3°C 90º 12kt >10km - Broken Clouds 5000ft 1018 No Significant change. Runway 04: Wet or puddles, 1-10% contamination with 1mm, friction coefficient 0.65. UARR 230100Z 09006MPS 9999 BKN050CB 11/03 Q1018 R04/210165 NOSIG RMK QFE760/1014
VFR 11°C / 5°C 90º 12kt >10km - Broken Clouds 5000ft 1018 No Significant change. Runway 04: Wet or puddles, 1-10% contamination with 1mm, friction coefficient 0.65. UARR 230030Z 09006MPS 9999 BKN050CB 11/05 Q1018 R04/210165 NOSIG RMK QFE760/1013
VFR 11°C / 5°C 80º 10kt >10km - Broken Clouds 5000ft 1018 No Significant change. Runway 04: Wet or puddles, 1-10% contamination with 1mm, friction coefficient 0.65. UARR 230000Z 08005MPS 9999 BKN050CB 11/05 Q1018 R04/210165 NOSIG RMK QFE760/1013
VFR 11°C / 6°C 90º 10kt >10km Light Showers Rain 3.00mm precipitation Vertical Visibility of 0ft. 1018 No Significant change. Runway 04: Wet or puddles, 1-10% contamination with 1mm, friction coefficient 0.65. UARR 222300Z 09005MPS 9999 -SHRA BKN050CB 11/06 Q1018 R04/210165 NOSIG RMK QFE760/1014
VFR 11°C / 5°C 120º 6kt >10km Light Showers Rain 3.00mm precipitation Vertical Visibility of 0ft. 1018 No Significant change. Runway 04: Wet or puddles, 1-10% contamination with 1mm, friction coefficient 0.65. UARR 222230Z 12003MPS 9999 -SHRA BKN050CB 11/05 Q1018 R04/210165 NOSIG RMK QFE760/1014
VFR 12°C / 4°C 110º 10kt >10km - Broken Clouds 5000ft 1018 No Significant change. Runway 04: Wet or puddles, 1-10% contamination with 1mm, friction coefficient 0.65. UARR 222200Z 11005MPS 9999 BKN050CB 12/04 Q1018 R04/210165 NOSIG RMK QFE760/1014
VFR 12°C / 4°C 110º 10kt >10km - Broken Clouds 5000ft 1018 No Significant change. Runway 04: Wet or puddles, 11-25% contamination with 3mm, friction coefficient 0.60. UARR 222130Z 11005MPS 9999 BKN050CB 12/04 Q1018 R04/220360 NOSIG RMK QFE760/1014
VFR 12°C / 4°C 90º 10kt >10km - Broken Clouds 5000ft 1018 No Significant change. Runway 04: Wet or puddles, 11-25% contamination with 3mm, friction coefficient 0.60. UARR 222100Z 09005MPS 9999 BKN050CB 12/04 Q1018 R04/220360 NOSIG RMK QFE760/1014
VFR 12°C / 5°C 100º 10kt >10km - Broken Clouds 5000ft 1018 No Significant change. Runway 04: Wet or puddles, 11-25% contamination with 3mm, friction coefficient 0.60. UARR 222030Z 10005MPS 9999 BKN050CB 12/05 Q1018 R04/220360 NOSIG RMK QFE760/1014
VFR 12°C / 5°C 100º 10kt >10km - Broken Clouds 5000ft 1018 No Significant change. Runway 04: Wet or puddles, 11-25% contamination with 3mm, friction coefficient 0.60. UARR 222000Z 10005MPS 9999 BKN050CB 12/05 Q1018 R04/220360 NOSIG RMK QFE760/1014
VFR 11°C / 6°C 80º 8kt >10km - Broken Clouds 5000ft 1018 No Significant change. Runway 04: Wet or puddles, 11-25% contamination with 3mm, friction coefficient 0.60. UARR 221930Z 08004MPS 9999 BKN050CB 11/06 Q1018 R04/220360 NOSIG RMK QFE760/1014
VFR 11°C / 7°C 70º 8kt >10km - Broken Clouds 5000ft 1018 No Significant change. Runway 04: Wet or puddles, 11-25% contamination with 3mm, friction coefficient 0.60. UARR 221900Z 07004MPS 9999 BKN050CB 11/07 Q1018 R04/220360 NOSIG RMK QFE760/1014
VFR 11°C / 6°C 70º 10kt >10km - Broken Clouds 5000ft 1018 No Significant change. Runway 04: Wet or puddles, 11-25% contamination with 3mm, friction coefficient 0.60. UARR 221830Z 07005MPS 9999 BKN050CB 11/06 Q1018 R04/220360 NOSIG RMK QFE760/1014
VFR 11°C / 7°C 80º 10kt >10km - Broken Clouds 5000ft 1018 No Significant change. Runway 04: Wet or puddles, 11-25% contamination with 3mm, friction coefficient 0.60. UARR 221800Z 08005MPS 9999 BKN050CB 11/07 Q1018 R04/220360 NOSIG RMK QFE760/1014
VFR 12°C / 6°C 110º 6kt >10km Light Showers Rain 3.00mm precipitation Vertical Visibility of 0ft. 1019 No Significant change UARR 221730Z 11003MPS 9999 -SHRA BKN050CB 12/06 Q1019 R04/CLRD70 NOSIG RMK QFE760/1014
VFR 12°C / 5°C 100º 8kt >10km - Broken Clouds 5000ft 1018 No Significant change UARR 221700Z 10004MPS 9999 BKN050CB 12/05 Q1018 R04/CLRD70 NOSIG RMK QFE760/1014
VFR 12°C / 6°C 80º 8kt >10km - Overcast 5000ft 1018 No Significant change. Runway 04: Damp, 51-100% contamination with <1mm, friction coefficient 0.65. UARR 221630Z 08004MPS 9999 OVC050CB 12/06 Q1018 R04/190065 NOSIG RMK QFE760/1014
VFR 13°C / 6°C 80º 10kt >10km - Overcast 5000ft 1018 No Significant change. Runway 04: Damp, 51-100% contamination with <1mm, friction coefficient 0.65. UARR 221600Z 08005MPS 9999 OVC050CB 13/06 Q1018 R04/190065 NOSIG RMK QFE760/1014
VFR 13°C / 6°C 70º 10kt >10km - Broken Clouds 5000ft 1018 No Significant change. Runway 04: Damp, 51-100% contamination with <1mm, friction coefficient 0.65. UARR 221530Z 07005MPS 9999 BKN050CB 13/06 Q1018 R04/190065 NOSIG RMK QFE760/1014

VFR

12°C / 3°C

[Още]
Вятър 100º 12kt
Видимост >10km
Времето -
Облаци Broken Clouds 5000ft
Налягане 1018
Промяна No Significant change
Сурови UARR 230330Z 10006MPS 9999 BKN050CB 12/03 Q1018 R04/CLRD70 NOSIG RMK QFE760/1014

VFR

11°C / 3°C

[Още]
Вятър 90º 10kt
Видимост >10km
Времето -
Облаци Broken Clouds 5000ft
Налягане 1018
Промяна No Significant change. Runway 04: Wet or puddles, 1-10% contamination with 1mm, friction coefficient 0.65.
Сурови UARR 230300Z 09005MPS 9999 BKN050CB 11/03 Q1018 R04/210165 NOSIG RMK QFE760/1014

VFR

11°C / 3°C

[Още]
Вятър 90º 12kt
Видимост >10km
Времето -
Облаци Broken Clouds 5000ft
Налягане 1018
Промяна No Significant change. Runway 04: Wet or puddles, 1-10% contamination with 1mm, friction coefficient 0.65.
Сурови UARR 230230Z 09006MPS 9999 BKN050CB 11/03 Q1018 R04/210165 NOSIG RMK QFE760/1014

VFR

11°C / 3°C

[Още]
Вятър 90º 12kt
Видимост >10km
Времето -
Облаци Broken Clouds 5000ft
Налягане 1018
Промяна No Significant change. Runway 04: Wet or puddles, 1-10% contamination with 1mm, friction coefficient 0.65.
Сурови UARR 230200Z 09006MPS 9999 BKN050CB 11/03 Q1018 R04/210165 NOSIG RMK QFE760/1014

VFR

11°C / 3°C

[Още]
Вятър 90º 10kt
Видимост >10km
Времето -
Облаци Broken Clouds 5000ft
Налягане 1018
Промяна No Significant change. Runway 04: Wet or puddles, 1-10% contamination with 1mm, friction coefficient 0.65.
Сурови UARR 230130Z 09005MPS 9999 BKN050CB 11/03 Q1018 R04/210165 NOSIG RMK QFE760/1014

VFR

11°C / 3°C

[Още]
Вятър 90º 12kt
Видимост >10km
Времето -
Облаци Broken Clouds 5000ft
Налягане 1018
Промяна No Significant change. Runway 04: Wet or puddles, 1-10% contamination with 1mm, friction coefficient 0.65.
Сурови UARR 230100Z 09006MPS 9999 BKN050CB 11/03 Q1018 R04/210165 NOSIG RMK QFE760/1014

VFR

11°C / 5°C

[Още]
Вятър 90º 12kt
Видимост >10km
Времето -
Облаци Broken Clouds 5000ft
Налягане 1018
Промяна No Significant change. Runway 04: Wet or puddles, 1-10% contamination with 1mm, friction coefficient 0.65.
Сурови UARR 230030Z 09006MPS 9999 BKN050CB 11/05 Q1018 R04/210165 NOSIG RMK QFE760/1013

VFR

11°C / 5°C

[Още]
Вятър 80º 10kt
Видимост >10km
Времето -
Облаци Broken Clouds 5000ft
Налягане 1018
Промяна No Significant change. Runway 04: Wet or puddles, 1-10% contamination with 1mm, friction coefficient 0.65.
Сурови UARR 230000Z 08005MPS 9999 BKN050CB 11/05 Q1018 R04/210165 NOSIG RMK QFE760/1013

VFR

11°C / 6°C

[Още]
Вятър 90º 10kt
Видимост >10km
Времето Light Showers Rain 3.00mm precipitation
Облаци Vertical Visibility of 0ft.
Налягане 1018
Промяна No Significant change. Runway 04: Wet or puddles, 1-10% contamination with 1mm, friction coefficient 0.65.
Сурови UARR 222300Z 09005MPS 9999 -SHRA BKN050CB 11/06 Q1018 R04/210165 NOSIG RMK QFE760/1014

VFR

11°C / 5°C

[Още]
Вятър 120º 6kt
Видимост >10km
Времето Light Showers Rain 3.00mm precipitation
Облаци Vertical Visibility of 0ft.
Налягане 1018
Промяна No Significant change. Runway 04: Wet or puddles, 1-10% contamination with 1mm, friction coefficient 0.65.
Сурови UARR 222230Z 12003MPS 9999 -SHRA BKN050CB 11/05 Q1018 R04/210165 NOSIG RMK QFE760/1014

VFR

12°C / 4°C

[Още]
Вятър 110º 10kt
Видимост >10km
Времето -
Облаци Broken Clouds 5000ft
Налягане 1018
Промяна No Significant change. Runway 04: Wet or puddles, 1-10% contamination with 1mm, friction coefficient 0.65.
Сурови UARR 222200Z 11005MPS 9999 BKN050CB 12/04 Q1018 R04/210165 NOSIG RMK QFE760/1014

VFR

12°C / 4°C

[Още]
Вятър 110º 10kt
Видимост >10km
Времето -
Облаци Broken Clouds 5000ft
Налягане 1018
Промяна No Significant change. Runway 04: Wet or puddles, 11-25% contamination with 3mm, friction coefficient 0.60.
Сурови UARR 222130Z 11005MPS 9999 BKN050CB 12/04 Q1018 R04/220360 NOSIG RMK QFE760/1014

VFR

12°C / 4°C

[Още]
Вятър 90º 10kt
Видимост >10km
Времето -
Облаци Broken Clouds 5000ft
Налягане 1018
Промяна No Significant change. Runway 04: Wet or puddles, 11-25% contamination with 3mm, friction coefficient 0.60.
Сурови UARR 222100Z 09005MPS 9999 BKN050CB 12/04 Q1018 R04/220360 NOSIG RMK QFE760/1014

VFR

12°C / 5°C

[Още]
Вятър 100º 10kt
Видимост >10km
Времето -
Облаци Broken Clouds 5000ft
Налягане 1018
Промяна No Significant change. Runway 04: Wet or puddles, 11-25% contamination with 3mm, friction coefficient 0.60.
Сурови UARR 222030Z 10005MPS 9999 BKN050CB 12/05 Q1018 R04/220360 NOSIG RMK QFE760/1014

VFR

12°C / 5°C

[Още]
Вятър 100º 10kt
Видимост >10km
Времето -
Облаци Broken Clouds 5000ft
Налягане 1018
Промяна No Significant change. Runway 04: Wet or puddles, 11-25% contamination with 3mm, friction coefficient 0.60.
Сурови UARR 222000Z 10005MPS 9999 BKN050CB 12/05 Q1018 R04/220360 NOSIG RMK QFE760/1014

VFR

11°C / 6°C

[Още]
Вятър 80º 8kt
Видимост >10km
Времето -
Облаци Broken Clouds 5000ft
Налягане 1018
Промяна No Significant change. Runway 04: Wet or puddles, 11-25% contamination with 3mm, friction coefficient 0.60.
Сурови UARR 221930Z 08004MPS 9999 BKN050CB 11/06 Q1018 R04/220360 NOSIG RMK QFE760/1014

VFR

11°C / 7°C

[Още]
Вятър 70º 8kt
Видимост >10km
Времето -
Облаци Broken Clouds 5000ft
Налягане 1018
Промяна No Significant change. Runway 04: Wet or puddles, 11-25% contamination with 3mm, friction coefficient 0.60.
Сурови UARR 221900Z 07004MPS 9999 BKN050CB 11/07 Q1018 R04/220360 NOSIG RMK QFE760/1014

VFR

11°C / 6°C

[Още]
Вятър 70º 10kt
Видимост >10km
Времето -
Облаци Broken Clouds 5000ft
Налягане 1018
Промяна No Significant change. Runway 04: Wet or puddles, 11-25% contamination with 3mm, friction coefficient 0.60.
Сурови UARR 221830Z 07005MPS 9999 BKN050CB 11/06 Q1018 R04/220360 NOSIG RMK QFE760/1014

VFR

11°C / 7°C

[Още]
Вятър 80º 10kt
Видимост >10km
Времето -
Облаци Broken Clouds 5000ft
Налягане 1018
Промяна No Significant change. Runway 04: Wet or puddles, 11-25% contamination with 3mm, friction coefficient 0.60.
Сурови UARR 221800Z 08005MPS 9999 BKN050CB 11/07 Q1018 R04/220360 NOSIG RMK QFE760/1014

VFR

12°C / 6°C

[Още]
Вятър 110º 6kt
Видимост >10km
Времето Light Showers Rain 3.00mm precipitation
Облаци Vertical Visibility of 0ft.
Налягане 1019
Промяна No Significant change
Сурови UARR 221730Z 11003MPS 9999 -SHRA BKN050CB 12/06 Q1019 R04/CLRD70 NOSIG RMK QFE760/1014

VFR

12°C / 5°C

[Още]
Вятър 100º 8kt
Видимост >10km
Времето -
Облаци Broken Clouds 5000ft
Налягане 1018
Промяна No Significant change
Сурови UARR 221700Z 10004MPS 9999 BKN050CB 12/05 Q1018 R04/CLRD70 NOSIG RMK QFE760/1014

VFR

12°C / 6°C

[Още]
Вятър 80º 8kt
Видимост >10km
Времето -
Облаци Overcast 5000ft
Налягане 1018
Промяна No Significant change. Runway 04: Damp, 51-100% contamination with <1mm, friction coefficient 0.65.
Сурови UARR 221630Z 08004MPS 9999 OVC050CB 12/06 Q1018 R04/190065 NOSIG RMK QFE760/1014

VFR

13°C / 6°C

[Още]
Вятър 80º 10kt
Видимост >10km
Времето -
Облаци Overcast 5000ft
Налягане 1018
Промяна No Significant change. Runway 04: Damp, 51-100% contamination with <1mm, friction coefficient 0.65.
Сурови UARR 221600Z 08005MPS 9999 OVC050CB 13/06 Q1018 R04/190065 NOSIG RMK QFE760/1014

VFR

13°C / 6°C

[Още]
Вятър 70º 10kt
Видимост >10km
Времето -
Облаци Broken Clouds 5000ft
Налягане 1018
Промяна No Significant change. Runway 04: Damp, 51-100% contamination with <1mm, friction coefficient 0.65.
Сурови UARR 221530Z 07005MPS 9999 BKN050CB 13/06 Q1018 R04/190065 NOSIG RMK QFE760/1014

TAF за 51.15°С 51.54°И (UARR)

From till


From till Wind 110º 12kt. Gust 21kt. Visibility 10km or more. Broken Clouds 3300ft.
Temporarly from till Light Showers Rain .

Сурови: TAF UARR 230200Z 2303/2312 11006G11MPS 9999 BKN033CB TEMPO 2303/2307 -SHRA

Актуални сателитни и дъждовни снимки за 51.15°С 51.54°И

Маркерът за локация е поставен върху 51.15°С 51.54°И. [Още]

Сателитното изображение в реално време съчетава видимата светлина през деня с инфрачервеното лъчение през нощта. През нощта изображението не е тъмно, тъй като инфрачервеното лъчение може да открива температурни разлики. За съжаление ниските облаци и мъглата са трудни за разграничаване от температурите на земята и затова могат да бъдат почти невидими през нощта. Сателитните изображения на Meteosat за Европа се актуализират в реално време на всеки 5 минути. Изображенията GOES-16/GOES-17 (Северна и Южна Америка) и Химавари (Азия) се актуализират на всеки 10 минути.

Всички права запазени 2021 EUMETSAT / meteoblue. / Всички права запазени 2021 meteoblue

Радар и валежи в момента за 51.15°С 51.54°И

Капчица
Лек
Умерен
Тежък
Много тежък
Аве

Маркерът за локация обозначава 51.15°С 51.54°И. Анимацията показва Радара за валежи за последния час, както и прогноза за 1h. Дъждът или лекият сняг може да са невидими за радара. Интензивността на валежите е обозначена с цветни кодове, вариращи от светлосиньо до оранжево.